Regional Weather Roundup
Issued by NWS

Home | Current Version | Previous Version | Graphics & Text | Print | Product List | Glossary On
Versions: 1 2 3 4 5 6 7 8 9 10 11 12 13 14 15 16 17 18 19 20 21 22 23 24 25 26 27
000
ASUS45 KSLC 280310
RWRUT

UTAH REGIONAL WEATHER ROUNDUP
NATIONAL WEATHER SERVICE SALT LAKE CITY UT
900 PM MDT MON MAR 27 2017

UTZ001>011-023>025-280400-

NORTHERN UTAH

CITY           SKY/WX    TMP DP  RH WIND       PRES   REMARKS
BRIGHAM CITY     N/A     46  35  65 NW9       29.97R
HILL AFB       NOT AVBL
LOGAN          CLOUDY    43  39  86 W9        29.97R
OGDEN          CLOUDY    43  36  76 NW12      29.96R
SALT LAKE CITY CLOUDY    44  39  82 N10       29.95R
TOOELE VALLEY  CLOUDY    45  37  76 N13G18    29.98R
WENDOVER       PTCLDY    46  27  47 NW17G23   30.03R
HEBER CITY     CLOUDY    36  36 100 E5        29.92R WCI  32
WEST JORDAN    CLOUDY    45  45 100 NW13      29.96R

$$

UTZ011>015-024>027-280400-

CENTRAL/NORTHEAST UTAH

CITY           SKY/WX    TMP DP  RH WIND       PRES   REMARKS
PROVO AIRPORT  CLOUDY    41  38  89 E5        29.95R
MOAB/CANYONLAN CLOUDY    47  41  80 CALM      29.78S
DELTA          CLOUDY    34  34 100 SE8       29.97R WCI  27
PRICE          CLOUDY    36  35  96 CALM      29.84R
RICHFIELD      CLOUDY    39  39 100 W1        29.94R
ROOSEVELT      MIX PCPN  41  37  87 W3        29.87S
VERNAL         CLOUDY    42  38  85 W6        29.83R

$$

UTZ013>016-019>022-027-280400-

SOUTHERN UTAH

CITY           SKY/WX    TMP DP  RH WIND       PRES   REMARKS
BRYCE CANYON   CLOUDY    32  26  78 NW16G26   29.88R WCI  21
CEDAR CITY     LGT RAIN  33  31  92 NW6       29.94R WCI  28
MILFORD        LGT RAIN  34  33  96 N6        29.96R WCI  29
ST GEORGE      CLOUDY    54  34  46 SW13      29.88R
HANKSVILLE     CLOUDY    46  39  76 SW6       29.85R
KANAB          CLEAR     45  32  61 S2        29.89R
BLANDING       MOCLDY    43  37  77 NE12      29.86F

$$

REGIONAL REPORTS     COLORADO/ARIZONA

CITY           SKY/WX    TMP DP  RH WIND       PRES   REMARKS
CRAIG, CO      CLOUDY    37  31  78 E3        29.85R
GRAND JUNCTION MOCLDY    52  35  52 SW18G31   29.79R
RIFLE, CO      CLOUDY    49  35  58 E15       29.79R
MONTROSE, CO   CLOUDY    50  35  56 SE7       29.84R
CORTEZ, CO     CLOUDY    43  39  86 E17       29.83F
COLORADO CITY    N/A     46  32  57 NW15      29.91R
PAGE, AZ       PTCLDY    53  32  44 SW10G23   29.78R
GRAND CANYON   MOCLDY    36  29  75 VRB3      29.88S
KINGMAN, AZ    PTCLDY    54  26  34 N13       29.87R
FLAGSTAFF, AZ  MOCLDY    37  30  75 NW12G23   29.89R WCI  29

$$

REGIONAL REPORTS    NEVADA/IDAHO/WYOMING

CITY           SKY/WX    TMP DP  RH WIND       PRES   REMARKS
LAS VEGAS, NV  PTCLDY    60  35  39 NE17      29.89R
ELY, NY        MOCLDY    34  30  85 N12       30.04R WCI  25
ELKO, NV       CLEAR     41  24  51 NW8       30.12R
POCATELLO, ID  CLOUDY    43  33  68 SW20      30.00R
BURLEY, ID     LGT RAIN  42  27  55 W20G28    30.02R
FORT BRIDGER,  SNOW      33  33 100 NW9       29.95R VSB 1/4 WCI  26
EVANSTON, WY   LGT SNOW  33  30  88 N14       29.94R FOG     WCI  23
ROCK SPRINGS,  LGT RAIN  37  34  89 NE10      29.88R WCI  30
KEMMERER, WY     N/A     32  32 100 NW7       29.92R WCI  26

$$




USA.gov is the U.S. government's official web portal to all federal, state and local government web resources and services.